BLY7464 EGSH-EGCC

Flight info

Callsign BLY7464
Flight time N/A
Altitude 22000
Route OTBED
Aircraft A320/M-SDE3FGHIRWY/LB1

Departure

Time 2026-05-06 20:30
Airport Norwich Airport (EGSH)

Arrival

Time N/A
Airport Manchester Airport (EGCC)
Time Latitude Longitude Altitude Speed Heading
2026-05-06 19:59 52.67284 1.28741 110 ft 0 kts 36°
2026-05-06 20:17 52.67282 1.28738 113 ft 3 kts 36°
2026-05-06 20:17 52.67260 1.28713 112 ft 4 kts 36°
2026-05-06 20:17 52.67246 1.28696 110 ft 4 kts 36°
2026-05-06 20:17 52.67224 1.28670 111 ft 4 kts 36°
2026-05-06 20:18 52.67211 1.28655 113 ft 0 kts 36°
2026-05-06 20:21 52.67217 1.28661 112 ft 4 kts 33°
2026-05-06 20:21 52.67253 1.28647 113 ft 8 kts 326°
2026-05-06 20:21 52.67284 1.28547 112 ft 12 kts 277°
2026-05-06 20:22 52.67239 1.28421 113 ft 13 kts 219°
2026-05-06 20:22 52.67155 1.28309 113 ft 17 kts 219°
2026-05-06 20:22 52.67069 1.28182 114 ft 14 kts 228°
2026-05-06 20:22 52.67030 1.28013 117 ft 16 kts 263°
2026-05-06 20:23 52.67049 1.27843 117 ft 13 kts 289°
2026-05-06 20:23 52.67062 1.27685 118 ft 15 kts 261°
2026-05-06 20:23 52.67068 1.27508 118 ft 15 kts 280°
2026-05-06 20:23 52.67099 1.27396 117 ft 11 kts 332°
2026-05-06 20:24 52.67162 1.27331 117 ft 12 kts 296°
2026-05-06 20:24 52.67183 1.27202 117 ft 9 kts 276°
2026-05-06 20:24 52.67185 1.27170 119 ft 0 kts 275°
2026-05-06 20:25 52.67186 1.27154 121 ft 4 kts 275°
2026-05-06 20:25 52.67202 1.27100 117 ft 7 kts 321°
2026-05-06 20:25 52.67264 1.27062 117 ft 12 kts 343°
2026-05-06 20:25 52.67360 1.27020 119 ft 14 kts 347°
2026-05-06 20:26 52.67416 1.26999 121 ft 0 kts 347°
2026-05-06 20:26 52.67440 1.26990 120 ft 6 kts 347°
2026-05-06 20:26 52.67502 1.26966 118 ft 12 kts 346°
2026-05-06 20:27 52.67558 1.26947 119 ft 9 kts
2026-05-06 20:27 52.67583 1.27046 119 ft 9 kts 89°
2026-05-06 20:27 52.67583 1.27050 119 ft 0 kts 89°
2026-05-06 20:29 52.67583 1.27115 119 ft 26 kts 89°
2026-05-06 20:29 52.67593 1.28012 118 ft 123 kts 89°
2026-05-06 20:29 52.67584 1.29736 436 ft 160 kts 90°
2026-05-06 20:30 52.67529 1.31552 1380 ft 157 kts 89°
2026-05-06 20:30 52.67849 1.35138 2659 ft 173 kts 72°
2026-05-06 20:30 52.68358 1.37094 3071 ft 199 kts 62°
2026-05-06 20:31 52.69188 1.39115 3644 ft 227 kts 51°
2026-05-06 20:31 52.70411 1.40978 4450 ft 250 kts 36°
2026-05-06 20:31 52.71981 1.42383 5455 ft 264 kts 21°
2026-05-06 20:31 52.73743 1.43065 6324 ft 266 kts
2026-05-06 20:32 52.75617 1.42924 7563 ft 269 kts 349°
2026-05-06 20:32 52.77411 1.41942 8693 ft 276 kts 333°
2026-05-06 20:32 52.79001 1.40120 9862 ft 281 kts 317°
2026-05-06 20:32 52.80247 1.37595 10833 ft 291 kts 303°
2026-05-06 20:33 52.81361 1.34648 11457 ft 311 kts 301°
2026-05-06 20:33 52.82501 1.31558 12410 ft 317 kts 301°
2026-05-06 20:33 52.83649 1.28423 13459 ft 320 kts 301°
2026-05-06 20:33 52.84810 1.25244 14427 ft 323 kts 301°
2026-05-06 20:34 52.85978 1.22054 15364 ft 326 kts 301°
2026-05-06 20:34 52.87161 1.18828 16254 ft 330 kts 301°
2026-05-06 20:34 52.87954 1.16669 16826 ft 332 kts 301°